NORTHERN NASSAU  -  Coastal Flood Statement Coastal Flood Statement        SOUTHERN NASSAU  -  Coastal Flood Statement Coastal Flood Statement      

Active alerts

Northern Nassau
  Details for Northern Nassau Coastal Flood Statement
Southern Nassau
  Details for Southern Nassau Coastal Flood Statement


WXM80 ListenWXM80 Stop

You find our weather info also at:

UK Metoffice

WeatherCloud

Weather Underground

Northeastern Weather Network

AWEKAS

Citizen Weather Observer Program (CWOP)

HAMweather, WeatherForYou, PWS Weather


Weather Underground History page Text

Daily Summary for January 7, 2017 Units:  Both    English   Metric
« Previous Day
Next Day »
Daily Weekly Monthly Yearly Custom
  High: Low: Average:
Temperature: 26.3 °F /  -3.2 °C 21.1 °F /  -6.1 °C 23.2 °F /  -4.9 °C
Dew Point: 21.1 °F /  -6.1 °C 11.2 °F /  -11.6 °C 17.1 °F /  -8.3 °C
Humidity: 94 % 58 % 78 %
Wind Speed: 14.9 mph /  24 km/h - 7.7 mph /  12.4 km/h
Wind Gust: 29.0 mph /  46.7 km/h - -
Wind:- - East
Pressure: 30.31 in /  1026.3 hPa 30.04 in /  1017.2 hPa -
Precipitation: 0.24 in /  6.1 mm    
Historical Graphs
 
 
Tabular Data for January 7, 2017
Time Temperature Dew Point Pressure Wind Wind Speed Wind Gust Humidity Rainfall Rate (Hourly)
00:03 26.3 °F /  -3.2 °C 13.9 °F /  -10.1 °C 30.25 in /  1024.3 hPa NNE 7.1 mph /  11.4 km/h 29.0 mph /  46.7 km/h 59 % 0.00 in /  0 mm
00:08 26.2 °F /  -3.2 °C 13.8 °F /  -10.1 °C 30.26 in /  1024.6 hPa NNE 7.5 mph /  12.1 km/h 29.0 mph /  46.7 km/h 59 % 0.00 in /  0 mm
00:13 26.1 °F /  -3.3 °C 13.7 °F /  -10.2 °C 30.26 in /  1024.6 hPa NNW 5.6 mph /  9 km/h 29.0 mph /  46.7 km/h 59 % 0.00 in /  0 mm
00:18 26.0 °F /  -3.3 °C 13.6 °F /  -10.2 °C 30.26 in /  1024.6 hPa NE 5.9 mph /  9.5 km/h 29.0 mph /  46.7 km/h 59 % 0.00 in /  0 mm
00:23 25.9 °F /  -3.4 °C 13.5 °F /  -10.3 °C 30.27 in /  1024.9 hPa NNE 6.6 mph /  10.6 km/h 29.0 mph /  46.7 km/h 59 % 0.00 in /  0 mm
00:28 25.8 °F /  -3.4 °C 13.4 °F /  -10.3 °C 30.27 in /  1024.9 hPa North 5.1 mph /  8.2 km/h 29.0 mph /  46.7 km/h 59 % 0.00 in /  0 mm
00:33 25.7 °F /  -3.5 °C 13.7 °F /  -10.2 °C 30.27 in /  1024.9 hPa NNE 6.7 mph /  10.8 km/h 29.0 mph /  46.7 km/h 60 % 0.00 in /  0 mm
00:38 25.6 °F /  -3.6 °C 13.6 °F /  -10.2 °C 30.27 in /  1024.9 hPa North 5.9 mph /  9.5 km/h 29.0 mph /  46.7 km/h 60 % 0.00 in /  0 mm
00:43 25.6 °F /  -3.6 °C 13.2 °F /  -10.4 °C 30.27 in /  1024.9 hPa North 6.1 mph /  9.8 km/h 29.0 mph /  46.7 km/h 59 % 0.00 in /  0 mm
00:48 25.4 °F /  -3.7 °C 13.4 °F /  -10.3 °C 30.26 in /  1024.6 hPa North 5.5 mph /  8.9 km/h 29.0 mph /  46.7 km/h 60 % 0.00 in /  0 mm
00:53 25.4 °F /  -3.7 °C 13.4 °F /  -10.3 °C 30.26 in /  1024.6 hPa NNE 7.2 mph /  11.6 km/h 29.0 mph /  46.7 km/h 60 % 0.00 in /  0 mm
00:58 25.3 °F /  -3.7 °C 13.3 °F /  -10.4 °C 30.26 in /  1024.6 hPa NNW 4.9 mph /  7.9 km/h 29.0 mph /  46.7 km/h 60 % 0.00 in /  0 mm
01:03 25.2 °F /  -3.8 °C 13.2 °F /  -10.4 °C 30.26 in /  1024.6 hPa NNE 7.1 mph /  11.4 km/h 29.0 mph /  46.7 km/h 60 % 0.00 in /  0 mm
01:08 25.1 °F /  -3.8 °C 12.8 °F /  -10.7 °C 30.26 in /  1024.6 hPa NNE 8.5 mph /  13.7 km/h 29.0 mph /  46.7 km/h 59 % 0.00 in /  0 mm
01:13 25.0 °F /  -3.9 °C 12.7 °F /  -10.7 °C 30.27 in /  1024.9 hPa NNE 5.6 mph /  9 km/h 29.0 mph /  46.7 km/h 59 % 0.00 in /  0 mm
01:18 24.9 °F /  -3.9 °C 12.2 °F /  -11 °C 30.26 in /  1024.6 hPa NNE 8.8 mph /  14.2 km/h 29.0 mph /  46.7 km/h 58 % 0.00 in /  0 mm
01:24 24.9 °F /  -3.9 °C 12.6 °F /  -10.8 °C 30.27 in /  1024.9 hPa NNE 6.5 mph /  10.5 km/h 29.0 mph /  46.7 km/h 59 % 0.00 in /  0 mm
01:29 24.9 °F /  -3.9 °C 13.3 °F /  -10.4 °C 30.26 in /  1024.6 hPa NNW 9.1 mph /  14.6 km/h 29.0 mph /  46.7 km/h 61 % 0.00 in /  0 mm
01:34 24.8 °F /  -4 °C 12.9 °F /  -10.6 °C 30.26 in /  1024.6 hPa NE 6.5 mph /  10.5 km/h 29.0 mph /  46.7 km/h 60 % 0.00 in /  0 mm
01:39 24.7 °F /  -4.1 °C 12.8 °F /  -10.7 °C 30.26 in /  1024.6 hPa NNE 7.6 mph /  12.2 km/h 29.0 mph /  46.7 km/h 60 % 0.00 in /  0 mm
01:44 24.7 °F /  -4.1 °C 12.8 °F /  -10.7 °C 30.27 in /  1024.9 hPa NNE 6.6 mph /  10.6 km/h 29.0 mph /  46.7 km/h 60 % 0.00 in /  0 mm
01:49 24.6 °F /  -4.1 °C 12.7 °F /  -10.7 °C 30.27 in /  1024.9 hPa NNE 6.5 mph /  10.5 km/h 29.0 mph /  46.7 km/h 60 % 0.00 in /  0 mm
01:54 24.6 °F /  -4.1 °C 12.7 °F /  -10.7 °C 30.27 in /  1024.9 hPa NE 6.5 mph /  10.5 km/h 29.0 mph /  46.7 km/h 60 % 0.00 in /  0 mm
01:59 24.6 °F /  -4.1 °C 13.1 °F /  -10.5 °C 30.27 in /  1024.9 hPa NNE 9.7 mph /  15.6 km/h 29.0 mph /  46.7 km/h 61 % 0.00 in /  0 mm
02:04 24.6 °F /  -4.1 °C 12.6 °F /  -10.8 °C 30.28 in /  1025.3 hPa NNE 8.0 mph /  12.9 km/h 15.0 mph /  24.1 km/h 60 % 0.00 in /  0 mm
02:09 24.5 °F /  -4.2 °C 12.6 °F /  -10.8 °C 30.28 in /  1025.3 hPa NNE 7.0 mph /  11.3 km/h 12.0 mph /  19.3 km/h 60 % 0.00 in /  0 mm
02:14 24.5 °F /  -4.2 °C 12.6 °F /  -10.8 °C 30.28 in /  1025.3 hPa NNE 8.0 mph /  12.9 km/h 13.0 mph /  20.9 km/h 60 % 0.00 in /  0 mm
02:19 24.5 °F /  -4.2 °C 12.2 °F /  -11 °C 30.29 in /  1025.6 hPa NNE 5.0 mph /  8 km/h 12.0 mph /  19.3 km/h 59 % 0.00 in /  0 mm
02:24 24.5 °F /  -4.2 °C 13.0 °F /  -10.6 °C 30.29 in /  1025.6 hPa North 8.0 mph /  12.9 km/h 12.0 mph /  19.3 km/h 61 % 0.00 in /  0 mm
02:29 24.5 °F /  -4.2 °C 12.6 °F /  -10.8 °C 30.29 in /  1025.6 hPa NNE 9.0 mph /  14.5 km/h 15.0 mph /  24.1 km/h 60 % 0.00 in /  0 mm
02:34 24.4 °F /  -4.2 °C 12.1 °F /  -11.1 °C 30.30 in /  1026 hPa NNE 7.0 mph /  11.3 km/h 13.0 mph /  20.9 km/h 59 % 0.00 in /  0 mm
02:39 24.4 °F /  -4.2 °C 12.5 °F /  -10.8 °C 30.30 in /  1026 hPa NNE 7.0 mph /  11.3 km/h 12.0 mph /  19.3 km/h 60 % 0.00 in /  0 mm
02:44 24.4 °F /  -4.2 °C 12.5 °F /  -10.8 °C 30.30 in /  1026 hPa NNE 6.0 mph /  9.7 km/h 9.0 mph /  14.5 km/h 60 % 0.00 in /  0 mm
02:49 24.4 °F /  -4.2 °C 12.5 °F /  -10.8 °C 30.29 in /  1025.6 hPa NNE 8.0 mph /  12.9 km/h 13.0 mph /  20.9 km/h 60 % 0.00 in /  0 mm
02:50 24.4 °F /  -4.2 °C 12.5 °F /  -10.8 °C 30.29 in /  1025.6 hPa NNE 6.5 mph /  10.5 km/h 29.0 mph /  46.7 km/h 60 % 0.00 in /  0 mm
02:55 24.3 °F /  -4.3 °C 12.0 °F /  -11.1 °C 30.30 in /  1026 hPa NNE 5.6 mph /  9 km/h 29.0 mph /  46.7 km/h 59 % 0.00 in /  0 mm
03:00 24.3 °F /  -4.3 °C 12.4 °F /  -10.9 °C 30.30 in /  1026 hPa NNE 5.7 mph /  9.2 km/h 29.0 mph /  46.7 km/h 60 % 0.00 in /  0 mm
03:05 24.3 °F /  -4.3 °C 12.0 °F /  -11.1 °C 30.30 in /  1026 hPa North 4.8 mph /  7.7 km/h 29.0 mph /  46.7 km/h 59 % 0.00 in /  0 mm
03:10 24.3 °F /  -4.3 °C 11.6 °F /  -11.3 °C 30.30 in /  1026 hPa NNE 5.2 mph /  8.4 km/h 29.0 mph /  46.7 km/h 58 % 0.00 in /  0 mm
03:15 24.3 °F /  -4.3 °C 12.4 °F /  -10.9 °C 30.30 in /  1026 hPa NNE 5.9 mph /  9.5 km/h 29.0 mph /  46.7 km/h 60 % 0.00 in /  0 mm
03:20 24.3 °F /  -4.3 °C 12.4 °F /  -10.9 °C 30.30 in /  1026 hPa NNE 3.2 mph /  5.1 km/h 29.0 mph /  46.7 km/h 60 % 0.00 in /  0 mm
03:25 24.3 °F /  -4.3 °C 12.4 °F /  -10.9 °C 30.29 in /  1025.6 hPa NNE 7.6 mph /  12.2 km/h 29.0 mph /  46.7 km/h 60 % 0.00 in /  0 mm
03:30 24.2 °F /  -4.3 °C 11.9 °F /  -11.2 °C 30.30 in /  1026 hPa NE 5.6 mph /  9 km/h 29.0 mph /  46.7 km/h 59 % 0.00 in /  0 mm
03:35 24.2 °F /  -4.3 °C 11.5 °F /  -11.4 °C 30.30 in /  1026 hPa NNW 5.7 mph /  9.2 km/h 29.0 mph /  46.7 km/h 58 % 0.00 in /  0 mm
03:41 24.1 °F /  -4.4 °C 11.8 °F /  -11.2 °C 30.30 in /  1026 hPa NE 8.8 mph /  14.2 km/h 29.0 mph /  46.7 km/h 59 % 0.00 in /  0 mm
03:46 24.1 °F /  -4.4 °C 11.8 °F /  -11.2 °C 30.30 in /  1026 hPa NE 4.4 mph /  7.1 km/h 29.0 mph /  46.7 km/h 59 % 0.00 in /  0 mm
03:51 24.1 °F /  -4.4 °C 11.8 °F /  -11.2 °C 30.30 in /  1026 hPa ENE 3.2 mph /  5.1 km/h 29.0 mph /  46.7 km/h 59 % 0.00 in /  0 mm
03:56 24.0 °F /  -4.4 °C 12.1 °F /  -11.1 °C 30.30 in /  1026 hPa NNE 4.9 mph /  7.9 km/h 29.0 mph /  46.7 km/h 60 % 0.00 in /  0 mm
04:01 24.0 °F /  -4.4 °C 11.7 °F /  -11.3 °C 30.30 in /  1026 hPa NNE 5.2 mph /  8.4 km/h 29.0 mph /  46.7 km/h 59 % 0.00 in /  0 mm
04:06 23.9 °F /  -4.5 °C 11.6 °F /  -11.3 °C 30.30 in /  1026 hPa NNE 8.5 mph /  13.7 km/h 29.0 mph /  46.7 km/h 59 % 0.00 in /  0 mm
04:11 23.9 °F /  -4.5 °C 11.3 °F /  -11.5 °C 30.29 in /  1025.6 hPa North 7.9 mph /  12.7 km/h 29.0 mph /  46.7 km/h 58 % 0.00 in /  0 mm
04:16 23.8 °F /  -4.6 °C 11.5 °F /  -11.4 °C 30.29 in /  1025.6 hPa NNE 6.1 mph /  9.8 km/h 29.0 mph /  46.7 km/h 59 % 0.00 in /  0 mm
04:21 23.8 °F /  -4.6 °C 11.2 °F /  -11.6 °C 30.30 in /  1026 hPa NNE 6.4 mph /  10.3 km/h 29.0 mph /  46.7 km/h 58 % 0.00 in /  0 mm
04:26 23.8 °F /  -4.6 °C 11.5 °F /  -11.4 °C 30.30 in /  1026 hPa NNE 5.6 mph /  9 km/h 29.0 mph /  46.7 km/h 59 % 0.00 in /  0 mm
04:31 23.8 °F /  -4.6 °C 11.9 °F /  -11.2 °C 30.30 in /  1026 hPa NNE 8.7 mph /  14 km/h 29.0 mph /  46.7 km/h 60 % 0.00 in /  0 mm
04:36 23.9 °F /  -4.5 °C 12.8 °F /  -10.7 °C 30.31 in /  1026.3 hPa North 5.3 mph /  8.5 km/h 29.0 mph /  46.7 km/h 62 % 0.00 in /  0 mm
04:41 23.9 °F /  -4.5 °C 12.4 °F /  -10.9 °C 30.31 in /  1026.3 hPa North 5.3 mph /  8.5 km/h 29.0 mph /  46.7 km/h 61 % 0.00 in /  0 mm
04:47 23.9 °F /  -4.5 °C 12.0 °F /  -11.1 °C 30.31 in /  1026.3 hPa NNW 7.1 mph /  11.4 km/h 29.0 mph /  46.7 km/h 60 % 0.00 in /  0 mm
04:52 24.0 °F /  -4.4 °C 12.1 °F /  -11.1 °C 30.30 in /  1026 hPa NNE 6.4 mph /  10.3 km/h 29.0 mph /  46.7 km/h 60 % 0.00 in /  0 mm
04:57 24.0 °F /  -4.4 °C 12.1 °F /  -11.1 °C 30.31 in /  1026.3 hPa NNE 4.9 mph /  7.9 km/h 29.0 mph /  46.7 km/h 60 % 0.00 in /  0 mm
05:02 23.9 °F /  -4.5 °C 12.0 °F /  -11.1 °C 30.30 in /  1026 hPa NE 6.4 mph /  10.3 km/h 29.0 mph /  46.7 km/h 60 % 0.00 in /  0 mm
05:07 23.9 °F /  -4.5 °C 12.8 °F /  -10.7 °C 30.30 in /  1026 hPa NNE 6.9 mph /  11.1 km/h 29.0 mph /  46.7 km/h 62 % 0.00 in /  0 mm
05:12 23.9 °F /  -4.5 °C 12.4 °F /  -10.9 °C 30.30 in /  1026 hPa NE 6.8 mph /  10.9 km/h 29.0 mph /  46.7 km/h 61 % 0.00 in /  0 mm
05:17 23.9 °F /  -4.5 °C 12.4 °F /  -10.9 °C 30.30 in /  1026 hPa NNE 6.3 mph /  10.1 km/h 29.0 mph /  46.7 km/h 61 % 0.00 in /  0 mm
05:22 23.9 °F /  -4.5 °C 12.4 °F /  -10.9 °C 30.30 in /  1026 hPa NNE 5.0 mph /  8 km/h 29.0 mph /  46.7 km/h 61 % 0.00 in /  0 mm
05:27 23.9 °F /  -4.5 °C 12.0 °F /  -11.1 °C 30.30 in /  1026 hPa NNE 5.6 mph /  9 km/h 29.0 mph /  46.7 km/h 60 % 0.00 in /  0 mm
05:32 23.9 °F /  -4.5 °C 12.4 °F /  -10.9 °C 30.30 in /  1026 hPa North 6.7 mph /  10.8 km/h 29.0 mph /  46.7 km/h 61 % 0.00 in /  0 mm
05:37 23.9 °F /  -4.5 °C 12.4 °F /  -10.9 °C 30.30 in /  1026 hPa NE 6.6 mph /  10.6 km/h 29.0 mph /  46.7 km/h 61 % 0.00 in /  0 mm
05:42 23.9 °F /  -4.5 °C 12.4 °F /  -10.9 °C 30.29 in /  1025.6 hPa NNE 7.0 mph /  11.3 km/h 29.0 mph /  46.7 km/h 61 % 0.00 in /  0 mm
05:47 23.9 °F /  -4.5 °C 12.8 °F /  -10.7 °C 30.29 in /  1025.6 hPa NNE 8.7 mph /  14 km/h 29.0 mph /  46.7 km/h 62 % 0.00 in /  0 mm
05:52 23.8 °F /  -4.6 °C 12.3 °F /  -10.9 °C 30.29 in /  1025.6 hPa NNE 4.2 mph /  6.8 km/h 29.0 mph /  46.7 km/h 61 % 0.00 in /  0 mm
05:57 23.8 °F /  -4.6 °C 12.7 °F /  -10.7 °C 30.29 in /  1025.6 hPa NNE 8.0 mph /  12.9 km/h 29.0 mph /  46.7 km/h 62 % 0.00 in /  0 mm
06:02 23.8 °F /  -4.6 °C 13.0 °F /  -10.6 °C 30.29 in /  1025.6 hPa NNE 8.0 mph /  12.9 km/h 29.0 mph /  46.7 km/h 63 % 0.00 in /  0 mm
06:07 23.8 °F /  -4.6 °C 13.0 °F /  -10.6 °C 30.28 in /  1025.3 hPa NNE 9.0 mph /  14.5 km/h 29.0 mph /  46.7 km/h 63 % 0.00 in /  0 mm
06:12 23.8 °F /  -4.6 °C 12.7 °F /  -10.7 °C 30.28 in /  1025.3 hPa NNE 5.7 mph /  9.2 km/h 29.0 mph /  46.7 km/h 62 % 0.00 in /  0 mm
06:18 23.8 °F /  -4.6 °C 12.7 °F /  -10.7 °C 30.27 in /  1024.9 hPa NNE 6.1 mph /  9.8 km/h 29.0 mph /  46.7 km/h 62 % 0.00 in /  0 mm
06:23 23.8 °F /  -4.6 °C 13.0 °F /  -10.6 °C 30.27 in /  1024.9 hPa NNE 7.5 mph /  12.1 km/h 29.0 mph /  46.7 km/h 63 % 0.00 in /  0 mm
06:28 23.8 °F /  -4.6 °C 13.0 °F /  -10.6 °C 30.26 in /  1024.6 hPa NNE 6.0 mph /  9.7 km/h 29.0 mph /  46.7 km/h 63 % 0.00 in /  0 mm
06:33 23.8 °F /  -4.6 °C 13.4 °F /  -10.3 °C 30.26 in /  1024.6 hPa NNE 7.5 mph /  12.1 km/h 29.0 mph /  46.7 km/h 64 % 0.00 in /  0 mm
06:38 23.8 °F /  -4.6 °C 13.4 °F /  -10.3 °C 30.26 in /  1024.6 hPa NNE 6.6 mph /  10.6 km/h 29.0 mph /  46.7 km/h 64 % 0.00 in /  0 mm
06:43 23.8 °F /  -4.6 °C 13.7 °F /  -10.2 °C 30.26 in /  1024.6 hPa NNE 6.7 mph /  10.8 km/h 29.0 mph /  46.7 km/h 65 % 0.00 in /  0 mm
06:48 23.8 °F /  -4.6 °C 13.7 °F /  -10.2 °C 30.25 in /  1024.3 hPa NNE 5.9 mph /  9.5 km/h 29.0 mph /  46.7 km/h 65 % 0.00 in /  0 mm
06:53 23.9 °F /  -4.5 °C 14.2 °F /  -9.9 °C 30.27 in /  1024.9 hPa NE 8.5 mph /  13.7 km/h 29.0 mph /  46.7 km/h 66 % 0.00 in /  0 mm
06:58 23.9 °F /  -4.5 °C 13.5 °F /  -10.3 °C 30.26 in /  1024.6 hPa NNE 9.2 mph /  14.8 km/h 29.0 mph /  46.7 km/h 64 % 0.00 in /  0 mm
07:03 23.9 °F /  -4.5 °C 13.8 °F /  -10.1 °C 30.26 in /  1024.6 hPa NNE 6.5 mph /  10.5 km/h 29.0 mph /  46.7 km/h 65 % 0.00 in /  0 mm
07:08 23.8 °F /  -4.6 °C 13.7 °F /  -10.2 °C 30.25 in /  1024.3 hPa NE 7.1 mph /  11.4 km/h 29.0 mph /  46.7 km/h 65 % 0.00 in /  0 mm
07:13 23.9 °F /  -4.5 °C 13.8 °F /  -10.1 °C 30.25 in /  1024.3 hPa NNE 9.0 mph /  14.5 km/h 29.0 mph /  46.7 km/h 65 % 0.00 in /  0 mm
07:18 23.9 °F /  -4.5 °C 13.8 °F /  -10.1 °C 30.26 in /  1024.6 hPa NE 5.4 mph /  8.7 km/h 29.0 mph /  46.7 km/h 65 % 0.00 in /  0 mm
07:24 23.9 °F /  -4.5 °C 14.2 °F /  -9.9 °C 30.27 in /  1024.9 hPa NNE 5.5 mph /  8.9 km/h 29.0 mph /  46.7 km/h 66 % 0.00 in /  0 mm
07:29 23.9 °F /  -4.5 °C 14.2 °F /  -9.9 °C 30.27 in /  1024.9 hPa NE 7.5 mph /  12.1 km/h 29.0 mph /  46.7 km/h 66 % 0.00 in /  0 mm
07:34 23.9 °F /  -4.5 °C 14.2 °F /  -9.9 °C 30.26 in /  1024.6 hPa NE 8.1 mph /  13 km/h 29.0 mph /  46.7 km/h 66 % 0.00 in /  0 mm
07:39 23.9 °F /  -4.5 °C 14.2 °F /  -9.9 °C 30.26 in /  1024.6 hPa NNE 7.3 mph /  11.7 km/h 29.0 mph /  46.7 km/h 66 % 0.00 in /  0 mm
07:44 24.0 °F /  -4.4 °C 14.3 °F /  -9.8 °C 30.28 in /  1025.3 hPa NNE 8.7 mph /  14 km/h 29.0 mph /  46.7 km/h 66 % 0.00 in /  0 mm
07:49 24.0 °F /  -4.4 °C 14.3 °F /  -9.8 °C 30.28 in /  1025.3 hPa NNE 8.0 mph /  12.9 km/h 29.0 mph /  46.7 km/h 66 % 0.00 in /  0 mm
07:54 24.0 °F /  -4.4 °C 13.9 °F /  -10.1 °C 30.29 in /  1025.6 hPa NNE 3.8 mph /  6.1 km/h 29.0 mph /  46.7 km/h 65 % 0.00 in /  0 mm
07:59 24.0 °F /  -4.4 °C 13.9 °F /  -10.1 °C 30.27 in /  1024.9 hPa NNE 5.1 mph /  8.2 km/h 29.0 mph /  46.7 km/h 65 % 0.00 in /  0 mm
08:04 24.1 °F /  -4.4 °C 14.0 °F /  -10 °C 30.27 in /  1024.9 hPa NNE 5.0 mph /  8 km/h 14.0 mph /  22.5 km/h 65 % 0.00 in /  0 mm
08:09 24.1 °F /  -4.4 °C 14.0 °F /  -10 °C 30.27 in /  1024.9 hPa NNE 3.0 mph /  4.8 km/h 12.0 mph /  19.3 km/h 65 % 0.00 in /  0 mm
08:14 24.2 °F /  -4.3 °C 14.1 °F /  -9.9 °C 30.27 in /  1024.9 hPa NNW 5.6 mph /  9 km/h 29.0 mph /  46.7 km/h 65 % 0.00 in /  0 mm
08:19 24.2 °F /  -4.3 °C 14.1 °F /  -9.9 °C 30.27 in /  1024.9 hPa NNE 7.0 mph /  11.3 km/h 12.0 mph /  19.3 km/h 65 % 0.00 in /  0 mm
08:24 24.2 °F /  -4.3 °C 14.5 °F /  -9.7 °C 30.26 in /  1024.6 hPa NNE 6.0 mph /  9.7 km/h 13.0 mph /  20.9 km/h 66 % 0.00 in /  0 mm
08:29 24.3 °F /  -4.3 °C 14.6 °F /  -9.7 °C 30.28 in /  1025.3 hPa NNE 5.0 mph /  8 km/h 9.0 mph /  14.5 km/h 66 % 0.00 in /  0 mm
08:34 24.4 °F /  -4.2 °C 14.3 °F /  -9.8 °C 30.27 in /  1024.9 hPa NE 4.2 mph /  6.8 km/h 29.0 mph /  46.7 km/h 65 % 0.00 in /  0 mm
08:39 24.5 °F /  -4.2 °C 14.4 °F /  -9.8 °C 30.27 in /  1024.9 hPa NE 7.0 mph /  11.3 km/h 12.0 mph /  19.3 km/h 65 % 0.00 in /  0 mm
08:44 24.6 °F /  -4.1 °C 14.8 °F /  -9.6 °C 30.27 in /  1024.9 hPa NE 7.0 mph /  11.3 km/h 13.0 mph /  20.9 km/h 66 % 0.00 in /  0 mm
08:49 24.7 °F /  -4.1 °C 14.9 °F /  -9.5 °C 30.27 in /  1024.9 hPa NNE 4.6 mph /  7.4 km/h 29.0 mph /  46.7 km/h 66 % 0.00 in /  0 mm
08:54 24.7 °F /  -4.1 °C 14.9 °F /  -9.5 °C 30.27 in /  1024.9 hPa NE 6.0 mph /  9.7 km/h 12.0 mph /  19.3 km/h 66 % 0.00 in /  0 mm
08:59 24.7 °F /  -4.1 °C 14.9 °F /  -9.5 °C 30.29 in /  1025.6 hPa East 6.7 mph /  10.8 km/h 29.0 mph /  46.7 km/h 66 % 0.00 in /  0 mm
09:04 24.8 °F /  -4 °C 14.7 °F /  -9.6 °C 30.29 in /  1025.6 hPa NE 7.3 mph /  11.7 km/h 29.0 mph /  46.7 km/h 65 % 0.00 in /  0 mm
09:09 24.7 °F /  -4.1 °C 14.6 °F /  -9.7 °C 30.27 in /  1024.9 hPa ENE 8.1 mph /  13 km/h 29.0 mph /  46.7 km/h 65 % 0.00 in /  0 mm
09:14 24.7 °F /  -4.1 °C 14.9 °F /  -9.5 °C 30.27 in /  1024.9 hPa ENE 5.0 mph /  8 km/h 29.0 mph /  46.7 km/h 66 % 0.00 in /  0 mm
09:19 24.7 °F /  -4.1 °C 14.9 °F /  -9.5 °C 30.25 in /  1024.3 hPa NNE 5.5 mph /  8.9 km/h 29.0 mph /  46.7 km/h 66 % 0.00 in /  0 mm
09:24 24.7 °F /  -4.1 °C 15.3 °F /  -9.3 °C 30.25 in /  1024.3 hPa ENE 7.9 mph /  12.7 km/h 29.0 mph /  46.7 km/h 67 % 0.00 in /  0 mm
09:29 24.7 °F /  -4.1 °C 15.6 °F /  -9.1 °C 30.26 in /  1024.6 hPa ENE 7.1 mph /  11.4 km/h 29.0 mph /  46.7 km/h 68 % 0.00 in /  0 mm
09:34 24.7 °F /  -4.1 °C 16.0 °F /  -8.9 °C 30.25 in /  1024.3 hPa NNE 5.3 mph /  8.5 km/h 29.0 mph /  46.7 km/h 69 % 0.00 in /  0 mm
09:39 24.6 °F /  -4.1 °C 15.5 °F /  -9.2 °C 30.26 in /  1024.6 hPa NE 6.4 mph /  10.3 km/h 29.0 mph /  46.7 km/h 68 % 0.00 in /  0 mm
09:45 24.7 °F /  -4.1 °C 16.0 °F /  -8.9 °C 30.25 in /  1024.3 hPa NNE 8.6 mph /  13.8 km/h 29.0 mph /  46.7 km/h 69 % 0.00 in /  0 mm
09:50 24.7 °F /  -4.1 °C 16.3 °F /  -8.7 °C 30.25 in /  1024.3 hPa NNE 4.9 mph /  7.9 km/h 29.0 mph /  46.7 km/h 70 % 0.00 in /  0 mm
09:55 24.7 °F /  -4.1 °C 16.6 °F /  -8.6 °C 30.25 in /  1024.3 hPa ENE 6.6 mph /  10.6 km/h 29.0 mph /  46.7 km/h 71 % 0.00 in /  0 mm
10:00 24.5 °F /  -4.2 °C 16.8 °F /  -8.4 °C 30.25 in /  1024.3 hPa NE 4.4 mph /  7.1 km/h 29.0 mph /  46.7 km/h 72 % 0.00 in /  0 mm
10:05 24.4 °F /  -4.2 °C 17.3 °F /  -8.2 °C 30.25 in /  1024.3 hPa NE 9.1 mph /  14.6 km/h 29.0 mph /  46.7 km/h 74 % 0.00 in /  0 mm
10:10 24.4 °F /  -4.2 °C 17.6 °F /  -8 °C 30.26 in /  1024.6 hPa NE 6.2 mph /  10 km/h 29.0 mph /  46.7 km/h 75 % 0.00 in /  0 mm
10:15 24.2 °F /  -4.3 °C 17.7 °F /  -7.9 °C 30.26 in /  1024.6 hPa NE 6.1 mph /  9.8 km/h 29.0 mph /  46.7 km/h 76 % 0.00 in /  0 mm
10:20 24.2 °F /  -4.3 °C 18.0 °F /  -7.8 °C 30.26 in /  1024.6 hPa ENE 5.6 mph /  9 km/h 29.0 mph /  46.7 km/h 77 % 0.00 in /  0 mm
10:25 24.2 °F /  -4.3 °C 18.3 °F /  -7.6 °C 30.26 in /  1024.6 hPa NNE 8.0 mph /  12.9 km/h 29.0 mph /  46.7 km/h 78 % 0.00 in /  0 mm
10:30 24.2 °F /  -4.3 °C 18.6 °F /  -7.4 °C 30.25 in /  1024.3 hPa North 5.8 mph /  9.3 km/h 29.0 mph /  46.7 km/h 79 % 0.00 in /  0 mm
10:35 24.2 °F /  -4.3 °C 18.9 °F /  -7.3 °C 30.25 in /  1024.3 hPa North 6.8 mph /  10.9 km/h 29.0 mph /  46.7 km/h 80 % 0.00 in /  0 mm
10:40 24.1 °F /  -4.4 °C 19.1 °F /  -7.2 °C 30.25 in /  1024.3 hPa North 6.6 mph /  10.6 km/h 29.0 mph /  46.7 km/h 81 % 0.00 in /  0 mm
10:45 24.0 °F /  -4.4 °C 19.3 °F /  -7.1 °C 30.25 in /  1024.3 hPa NE 7.6 mph /  12.2 km/h 29.0 mph /  46.7 km/h 82 % 0.00 in /  0 mm
10:51 23.9 °F /  -4.5 °C 19.5 °F /  -6.9 °C 30.24 in /  1023.9 hPa NNE 9.6 mph /  15.4 km/h 29.0 mph /  46.7 km/h 83 % 0.00 in /  0 mm
10:56 23.8 °F /  -4.6 °C 19.7 °F /  -6.8 °C 30.23 in /  1023.6 hPa NE 7.8 mph /  12.6 km/h 29.0 mph /  46.7 km/h 84 % 0.00 in /  0 mm
11:01 23.6 °F /  -4.7 °C 19.8 °F /  -6.8 °C 30.22 in /  1023.2 hPa North 7.3 mph /  11.7 km/h 29.0 mph /  46.7 km/h 85 % 0.00 in /  0 mm
11:06 23.6 °F /  -4.7 °C 19.8 °F /  -6.8 °C 30.20 in /  1022.6 hPa NNW 8.1 mph /  13 km/h 29.0 mph /  46.7 km/h 85 % 0.00 in /  0 mm
11:11 23.4 °F /  -4.8 °C 19.6 °F /  -6.9 °C 30.22 in /  1023.2 hPa North 8.4 mph /  13.5 km/h 29.0 mph /  46.7 km/h 85 % 0.00 in /  0 mm
11:16 23.4 °F /  -4.8 °C 19.8 °F /  -6.8 °C 30.22 in /  1023.2 hPa NNE 10.4 mph /  16.7 km/h 29.0 mph /  46.7 km/h 86 % 0.00 in /  0 mm
11:21 23.1 °F /  -4.9 °C 19.5 °F /  -6.9 °C 30.22 in /  1023.2 hPa NE 6.6 mph /  10.6 km/h 29.0 mph /  46.7 km/h 86 % 0.00 in /  0 mm
11:26 23.1 °F /  -4.9 °C 19.8 °F /  -6.8 °C 30.22 in /  1023.2 hPa NNE 7.2 mph /  11.6 km/h 29.0 mph /  46.7 km/h 87 % 0.00 in /  0 mm
11:31 23.0 °F /  -5 °C 19.7 °F /  -6.8 °C 30.21 in /  1022.9 hPa NNE 8.0 mph /  12.9 km/h 29.0 mph /  46.7 km/h 87 % 0.00 in /  0 mm
11:36 22.9 °F /  -5.1 °C 19.6 °F /  -6.9 °C 30.20 in /  1022.6 hPa NNE 8.5 mph /  13.7 km/h 29.0 mph /  46.7 km/h 87 % 0.00 in /  0 mm
11:41 22.8 °F /  -5.1 °C 19.5 °F /  -6.9 °C 30.19 in /  1022.2 hPa NNE 7.6 mph /  12.2 km/h 29.0 mph /  46.7 km/h 87 % 0.00 in /  0 mm
11:46 22.7 °F /  -5.2 °C 19.7 °F /  -6.8 °C 30.20 in /  1022.6 hPa North 8.4 mph /  13.5 km/h 29.0 mph /  46.7 km/h 88 % 0.00 in /  0 mm
11:51 22.7 °F /  -5.2 °C 19.7 °F /  -6.8 °C 30.19 in /  1022.2 hPa NE 8.0 mph /  12.9 km/h 29.0 mph /  46.7 km/h 88 % 0.00 in /  0 mm
11:56 22.7 °F /  -5.2 °C 19.9 °F /  -6.7 °C 30.18 in /  1021.9 hPa NNE 11.1 mph /  17.9 km/h 29.0 mph /  46.7 km/h 89 % 0.00 in /  0 mm
12:02 22.6 °F /  -5.2 °C 19.8 °F /  -6.8 °C 30.17 in /  1021.6 hPa NNE 9.1 mph /  14.6 km/h 29.0 mph /  46.7 km/h 89 % 0.00 in /  0 mm
12:07 22.6 °F /  -5.2 °C 19.8 °F /  -6.8 °C 30.17 in /  1021.6 hPa North 9.7 mph /  15.6 km/h 29.0 mph /  46.7 km/h 89 % 0.01 in /  0.25 mm
12:12 22.6 °F /  -5.2 °C 19.8 °F /  -6.8 °C 30.18 in /  1021.9 hPa NE 9.7 mph /  15.6 km/h 29.0 mph /  46.7 km/h 89 % 0.01 in /  0.25 mm
12:17 22.6 °F /  -5.2 °C 19.8 °F /  -6.8 °C 30.17 in /  1021.6 hPa NNE 8.3 mph /  13.4 km/h 29.0 mph /  46.7 km/h 89 % 0.01 in /  0.25 mm
12:22 22.6 °F /  -5.2 °C 20.1 °F /  -6.6 °C 30.16 in /  1021.2 hPa NNE 9.5 mph /  15.3 km/h 29.0 mph /  46.7 km/h 90 % 0.01 in /  0.25 mm
12:27 22.6 °F /  -5.2 °C 20.1 °F /  -6.6 °C 30.14 in /  1020.5 hPa NNE 11.5 mph /  18.5 km/h 29.0 mph /  46.7 km/h 90 % 0.01 in /  0.25 mm
12:32 22.6 °F /  -5.2 °C 20.1 °F /  -6.6 °C 30.16 in /  1021.2 hPa NE 10.9 mph /  17.5 km/h 29.0 mph /  46.7 km/h 90 % 0.01 in /  0.25 mm
12:37 22.6 °F /  -5.2 °C 20.1 °F /  -6.6 °C 30.16 in /  1021.2 hPa NE 8.7 mph /  14 km/h 29.0 mph /  46.7 km/h 90 % 0.01 in /  0.25 mm
12:42 22.5 °F /  -5.3 °C 20.3 °F /  -6.5 °C 30.15 in /  1020.9 hPa NNE 10.2 mph /  16.4 km/h 29.0 mph /  46.7 km/h 91 % 0.02 in /  0.51 mm
12:47 22.5 °F /  -5.3 °C 20.3 °F /  -6.5 °C 30.14 in /  1020.5 hPa NNE 8.6 mph /  13.8 km/h 29.0 mph /  46.7 km/h 91 % 0.02 in /  0.51 mm
12:52 22.5 °F /  -5.3 °C 20.3 °F /  -6.5 °C 30.14 in /  1020.5 hPa NNE 9.2 mph /  14.8 km/h 29.0 mph /  46.7 km/h 91 % 0.02 in /  0.51 mm
12:57 22.5 °F /  -5.3 °C 20.3 °F /  -6.5 °C 30.12 in /  1019.9 hPa NE 12.8 mph /  20.6 km/h 29.0 mph /  46.7 km/h 91 % 0.02 in /  0.51 mm
13:02 22.5 °F /  -5.3 °C 20.3 °F /  -6.5 °C 30.12 in /  1019.9 hPa NE 12.1 mph /  19.5 km/h 29.0 mph /  46.7 km/h 91 % 0.02 in /  0.51 mm
13:07 22.4 °F /  -5.3 °C 20.2 °F /  -6.6 °C 30.13 in /  1020.2 hPa NNE 6.8 mph /  10.9 km/h 29.0 mph /  46.7 km/h 91 % 0.02 in /  0.51 mm
13:13 22.5 °F /  -5.3 °C 20.3 °F /  -6.5 °C 30.15 in /  1020.9 hPa NE 6.7 mph /  10.8 km/h 29.0 mph /  46.7 km/h 91 % 0.02 in /  0.51 mm
13:18 22.5 °F /  -5.3 °C 20.5 °F /  -6.4 °C 30.13 in /  1020.2 hPa NE 11.0 mph /  17.7 km/h 29.0 mph /  46.7 km/h 92 % 0.02 in /  0.51 mm
13:23 22.3 °F /  -5.4 °C 20.3 °F /  -6.5 °C 30.13 in /  1020.2 hPa North 7.2 mph /  11.6 km/h 29.0 mph /  46.7 km/h 92 % 0.02 in /  0.51 mm
13:28 22.2 °F /  -5.4 °C 20.2 °F /  -6.6 °C 30.13 in /  1020.2 hPa North 10.4 mph /  16.7 km/h 29.0 mph /  46.7 km/h 92 % 0.03 in /  0.76 mm
13:33 22.2 °F /  -5.4 °C 20.2 °F /  -6.6 °C 30.11 in /  1019.5 hPa NE 11.6 mph /  18.7 km/h 29.0 mph /  46.7 km/h 92 % 0.03 in /  0.76 mm
13:38 22.2 °F /  -5.4 °C 20.2 °F /  -6.6 °C 30.13 in /  1020.2 hPa North 8.8 mph /  14.2 km/h 29.0 mph /  46.7 km/h 92 % 0.03 in /  0.76 mm
13:43 22.3 °F /  -5.4 °C 20.6 °F /  -6.3 °C 30.14 in /  1020.5 hPa NNW 8.9 mph /  14.3 km/h 29.0 mph /  46.7 km/h 93 % 0.03 in /  0.76 mm
13:48 22.3 °F /  -5.4 °C 20.6 °F /  -6.3 °C 30.14 in /  1020.5 hPa NW 8.5 mph /  13.7 km/h 29.0 mph /  46.7 km/h 93 % 0.03 in /  0.76 mm
13:53 22.2 °F /  -5.4 °C 20.5 °F /  -6.4 °C 30.12 in /  1019.9 hPa North 14.9 mph /  24 km/h 29.0 mph /  46.7 km/h 93 % 0.04 in /  1.02 mm
13:58 22.1 °F /  -5.5 °C 20.4 °F /  -6.4 °C 30.11 in /  1019.5 hPa NNE 9.9 mph /  15.9 km/h 29.0 mph /  46.7 km/h 93 % 0.04 in /  1.02 mm
14:03 22.1 °F /  -5.5 °C 20.4 °F /  -6.4 °C 30.11 in /  1019.5 hPa North 10.3 mph /  16.6 km/h 29.0 mph /  46.7 km/h 93 % 0.04 in /  1.02 mm
14:08 22.2 °F /  -5.4 °C 20.5 °F /  -6.4 °C 30.11 in /  1019.5 hPa NNE 7.3 mph /  11.7 km/h 29.0 mph /  46.7 km/h 93 % 0.03 in /  0.76 mm
14:14 22.2 °F /  -5.4 °C 20.5 °F /  -6.4 °C 30.11 in /  1019.5 hPa NE 11.1 mph /  17.9 km/h 29.0 mph /  46.7 km/h 93 % 0.04 in /  1.02 mm
14:19 22.2 °F /  -5.4 °C 20.5 °F /  -6.4 °C 30.12 in /  1019.9 hPa North 8.1 mph /  13 km/h 29.0 mph /  46.7 km/h 93 % 0.04 in /  1.02 mm
14:24 22.2 °F /  -5.4 °C 20.5 °F /  -6.4 °C 30.12 in /  1019.9 hPa NNE 11.1 mph /  17.9 km/h 29.0 mph /  46.7 km/h 93 % 0.04 in /  1.02 mm
14:29 22.2 °F /  -5.4 °C 20.5 °F /  -6.4 °C 30.12 in /  1019.9 hPa North 7.7 mph /  12.4 km/h 29.0 mph /  46.7 km/h 93 % 0.04 in /  1.02 mm
14:34 22.3 °F /  -5.4 °C 20.6 °F /  -6.3 °C 30.11 in /  1019.5 hPa NE 9.9 mph /  15.9 km/h 29.0 mph /  46.7 km/h 93 % 0.04 in /  1.02 mm
14:39 22.3 °F /  -5.4 °C 20.6 °F /  -6.3 °C 30.11 in /  1019.5 hPa NNW 8.5 mph /  13.7 km/h 29.0 mph /  46.7 km/h 93 % 0.05 in /  1.27 mm
14:44 22.3 °F /  -5.4 °C 20.6 °F /  -6.3 °C 30.11 in /  1019.5 hPa NNE 10.9 mph /  17.5 km/h 29.0 mph /  46.7 km/h 93 % 0.04 in /  1.02 mm
14:49 22.3 °F /  -5.4 °C 20.6 °F /  -6.3 °C 30.12 in /  1019.9 hPa North 9.1 mph /  14.6 km/h 29.0 mph /  46.7 km/h 93 % 0.05 in /  1.27 mm
14:54 22.3 °F /  -5.4 °C 20.6 °F /  -6.3 °C 30.10 in /  1019.2 hPa NNE 12.0 mph /  19.3 km/h 29.0 mph /  46.7 km/h 93 % 0.04 in /  1.02 mm
14:59 22.3 °F /  -5.4 °C 20.6 °F /  -6.3 °C 30.12 in /  1019.9 hPa NNE 8.4 mph /  13.5 km/h 29.0 mph /  46.7 km/h 93 % 0.04 in /  1.02 mm
15:04 22.3 °F /  -5.4 °C 20.6 °F /  -6.3 °C 30.13 in /  1020.2 hPa North 10.0 mph /  16.1 km/h 17.0 mph /  27.4 km/h 93 % 0.00 in /  0 mm
15:09 22.3 °F /  -5.4 °C 20.5 °F /  -6.4 °C 30.12 in /  1019.9 hPa NNE 12.0 mph /  19.3 km/h 16.0 mph /  25.7 km/h 93 % 0.00 in /  0 mm
15:14 22.2 °F /  -5.4 °C 20.5 °F /  -6.4 °C 30.10 in /  1019.2 hPa NNE 12.0 mph /  19.3 km/h 18.0 mph /  29 km/h 93 % 0.00 in /  0 mm
15:19 22.3 °F /  -5.4 °C 20.6 °F /  -6.3 °C 30.09 in /  1018.8 hPa NNE 9.0 mph /  14.5 km/h 20.0 mph /  32.2 km/h 93 % 0.00 in /  0 mm
15:24 22.3 °F /  -5.4 °C 20.6 °F /  -6.3 °C 30.11 in /  1019.5 hPa NNE 8.0 mph /  12.9 km/h 15.0 mph /  24.1 km/h 93 % 0.00 in /  0 mm
15:29 22.4 °F /  -5.3 °C 20.7 °F /  -6.3 °C 30.10 in /  1019.2 hPa NNE 8.0 mph /  12.9 km/h 18.0 mph /  29 km/h 93 % 0.00 in /  0 mm
15:34 22.4 °F /  -5.3 °C 20.7 °F /  -6.3 °C 30.09 in /  1018.8 hPa NNE 12.0 mph /  19.3 km/h 20.0 mph /  32.2 km/h 93 % 0.00 in /  0 mm
15:39 22.4 °F /  -5.3 °C 20.7 °F /  -6.3 °C 30.08 in /  1018.5 hPa North 12.0 mph /  19.3 km/h 20.0 mph /  32.2 km/h 93 % 0.01 in /  0.25 mm
15:44 22.4 °F /  -5.3 °C 20.7 °F /  -6.3 °C 30.09 in /  1018.8 hPa North 12.0 mph /  19.3 km/h 20.0 mph /  32.2 km/h 93 % 0.00 in /  0 mm
15:49 22.3 °F /  -5.4 °C 20.6 °F /  -6.3 °C 30.10 in /  1019.2 hPa NNE 7.2 mph /  11.6 km/h 29.0 mph /  46.7 km/h 93 % 0.04 in /  1.02 mm
15:54 22.4 °F /  -5.3 °C 20.7 °F /  -6.3 °C 30.10 in /  1019.2 hPa North 9.0 mph /  14.5 km/h 16.0 mph /  25.7 km/h 93 % 0.00 in /  0 mm
15:59 22.4 °F /  -5.3 °C 20.7 °F /  -6.3 °C 30.08 in /  1018.5 hPa North 7.7 mph /  12.4 km/h 29.0 mph /  46.7 km/h 93 % 0.05 in /  1.27 mm
16:04 22.4 °F /  -5.3 °C 20.7 °F /  -6.3 °C 30.08 in /  1018.5 hPa NNE 5.4 mph /  8.7 km/h 29.0 mph /  46.7 km/h 93 % 0.05 in /  1.27 mm
16:09 22.4 °F /  -5.3 °C 20.7 °F /  -6.3 °C 30.06 in /  1017.8 hPa NNE 8.0 mph /  12.9 km/h 21.0 mph /  33.8 km/h 93 % 0.00 in /  0 mm
16:14 22.5 °F /  -5.3 °C 20.8 °F /  -6.2 °C 30.06 in /  1017.8 hPa North 8.0 mph /  12.9 km/h 20.0 mph /  32.2 km/h 93 % 0.00 in /  0 mm
16:19 22.5 °F /  -5.3 °C 20.8 °F /  -6.2 °C 30.07 in /  1018.2 hPa NNW 9.0 mph /  14.5 km/h 29.0 mph /  46.7 km/h 93 % 0.05 in /  1.27 mm
16:24 22.4 °F /  -5.3 °C 20.7 °F /  -6.3 °C 30.08 in /  1018.5 hPa North 8.0 mph /  12.9 km/h 20.0 mph /  32.2 km/h 93 % 0.00 in /  0 mm
16:29 22.4 °F /  -5.3 °C 20.7 °F /  -6.3 °C 30.07 in /  1018.2 hPa North 7.0 mph /  11.3 km/h 18.0 mph /  29 km/h 93 % 0.00 in /  0 mm
16:34 22.4 °F /  -5.3 °C 20.7 °F /  -6.3 °C 30.08 in /  1018.5 hPa NNW 8.2 mph /  13.2 km/h 29.0 mph /  46.7 km/h 93 % 0.05 in /  1.27 mm
16:39 22.4 °F /  -5.3 °C 20.7 °F /  -6.3 °C 30.07 in /  1018.2 hPa North 9.0 mph /  14.5 km/h 18.0 mph /  29 km/h 93 % 0.00 in /  0 mm
16:44 22.4 °F /  -5.3 °C 20.7 °F /  -6.3 °C 30.07 in /  1018.2 hPa North 7.0 mph /  11.3 km/h 15.0 mph /  24.1 km/h 93 % 0.00 in /  0 mm
16:49 22.4 °F /  -5.3 °C 20.7 °F /  -6.3 °C 30.05 in /  1017.5 hPa North 8.0 mph /  12.9 km/h 18.0 mph /  29 km/h 93 % 0.00 in /  0 mm
16:54 22.4 °F /  -5.3 °C 20.7 °F /  -6.3 °C 30.07 in /  1018.2 hPa North 14.0 mph /  22.5 km/h 20.0 mph /  32.2 km/h 93 % 0.00 in /  0 mm
16:59 22.4 °F /  -5.3 °C 20.7 °F /  -6.3 °C 30.06 in /  1017.8 hPa NNE 8.3 mph /  13.4 km/h 29.0 mph /  46.7 km/h 93 % 0.05 in /  1.27 mm
17:04 22.4 °F /  -5.3 °C 20.7 °F /  -6.3 °C 30.07 in /  1018.2 hPa NNE 13.5 mph /  21.7 km/h 29.0 mph /  46.7 km/h 93 % 0.04 in /  1.02 mm
17:09 22.5 °F /  -5.3 °C 20.8 °F /  -6.2 °C 30.08 in /  1018.5 hPa NNE 8.8 mph /  14.2 km/h 29.0 mph /  46.7 km/h 93 % 0.04 in /  1.02 mm
17:14 22.5 °F /  -5.3 °C 20.8 °F /  -6.2 °C 30.07 in /  1018.2 hPa NNE 6.6 mph /  10.6 km/h 29.0 mph /  46.7 km/h 93 % 0.03 in /  0.76 mm
17:19 22.5 °F /  -5.3 °C 20.8 °F /  -6.2 °C 30.07 in /  1018.2 hPa NNW 6.4 mph /  10.3 km/h 29.0 mph /  46.7 km/h 93 % 0.03 in /  0.76 mm
17:24 22.5 °F /  -5.3 °C 20.8 °F /  -6.2 °C 30.08 in /  1018.5 hPa North 10.9 mph /  17.5 km/h 29.0 mph /  46.7 km/h 93 % 0.02 in /  0.51 mm
17:30 22.6 °F /  -5.2 °C 21.1 °F /  -6.1 °C 30.08 in /  1018.5 hPa NNW 9.0 mph /  14.5 km/h 29.0 mph /  46.7 km/h 94 % 0.03 in /  0.76 mm
17:35 22.6 °F /  -5.2 °C 20.9 °F /  -6.2 °C 30.08 in /  1018.5 hPa NNW 11.2 mph /  18 km/h 29.0 mph /  46.7 km/h 93 % 0.03 in /  0.76 mm
17:40 22.5 °F /  -5.3 °C 20.8 °F /  -6.2 °C 30.08 in /  1018.5 hPa NNE 9.2 mph /  14.8 km/h 29.0 mph /  46.7 km/h 93 % 0.02 in /  0.51 mm
17:45 22.6 °F /  -5.2 °C 20.9 °F /  -6.2 °C 30.08 in /  1018.5 hPa NNE 8.3 mph /  13.4 km/h 29.0 mph /  46.7 km/h 93 % 0.02 in /  0.51 mm
17:50 22.5 °F /  -5.3 °C 21.0 °F /  -6.1 °C 30.08 in /  1018.5 hPa NNE 5.7 mph /  9.2 km/h 29.0 mph /  46.7 km/h 94 % 0.02 in /  0.51 mm
17:55 22.6 °F /  -5.2 °C 21.1 °F /  -6.1 °C 30.09 in /  1018.8 hPa North 9.4 mph /  15.1 km/h 29.0 mph /  46.7 km/h 94 % 0.03 in /  0.76 mm
18:00 22.6 °F /  -5.2 °C 21.1 °F /  -6.1 °C 30.07 in /  1018.2 hPa NNE 13.2 mph /  21.2 km/h 29.0 mph /  46.7 km/h 94 % 0.02 in /  0.51 mm
18:05 22.5 °F /  -5.3 °C 20.8 °F /  -6.2 °C 30.08 in /  1018.5 hPa North 14.3 mph /  23 km/h 29.0 mph /  46.7 km/h 93 % 0.02 in /  0.51 mm
18:10 22.5 °F /  -5.3 °C 20.8 °F /  -6.2 °C 30.08 in /  1018.5 hPa NNE 8.1 mph /  13 km/h 29.0 mph /  46.7 km/h 93 % 0.02 in /  0.51 mm
18:15 22.6 °F /  -5.2 °C 20.9 °F /  -6.2 °C 30.08 in /  1018.5 hPa NNE 12.0 mph /  19.3 km/h 29.0 mph /  46.7 km/h 93 % 0.02 in /  0.51 mm
18:20 22.6 °F /  -5.2 °C 20.9 °F /  -6.2 °C 30.07 in /  1018.2 hPa NNW 5.0 mph /  8 km/h 29.0 mph /  46.7 km/h 93 % 0.02 in /  0.51 mm
18:25 22.6 °F /  -5.2 °C 20.9 °F /  -6.2 °C 30.07 in /  1018.2 hPa NNW 10.7 mph /  17.2 km/h 29.0 mph /  46.7 km/h 93 % 0.02 in /  0.51 mm
18:30 22.6 °F /  -5.2 °C 20.9 °F /  -6.2 °C 30.04 in /  1017.2 hPa NNE 11.8 mph /  19 km/h 29.0 mph /  46.7 km/h 93 % 0.01 in /  0.25 mm
18:35 22.6 °F /  -5.2 °C 20.9 °F /  -6.2 °C 30.06 in /  1017.8 hPa NE 4.7 mph /  7.6 km/h 29.0 mph /  46.7 km/h 93 % 0.02 in /  0.51 mm
18:40 22.6 °F /  -5.2 °C 20.9 °F /  -6.2 °C 30.06 in /  1017.8 hPa North 10.1 mph /  16.3 km/h 29.0 mph /  46.7 km/h 93 % 0.02 in /  0.51 mm
18:45 22.6 °F /  -5.2 °C 20.9 °F /  -6.2 °C 30.06 in /  1017.8 hPa NNW 7.9 mph /  12.7 km/h 29.0 mph /  46.7 km/h 93 % 0.02 in /  0.51 mm
18:50 22.6 °F /  -5.2 °C 20.9 °F /  -6.2 °C 30.07 in /  1018.2 hPa NNW 11.1 mph /  17.9 km/h 29.0 mph /  46.7 km/h 93 % 0.02 in /  0.51 mm
18:56 22.6 °F /  -5.2 °C 20.9 °F /  -6.2 °C 30.07 in /  1018.2 hPa NNE 12.3 mph /  19.8 km/h 29.0 mph /  46.7 km/h 93 % 0.01 in /  0.25 mm
19:01 22.5 °F /  -5.3 °C 20.8 °F /  -6.2 °C 30.06 in /  1017.8 hPa NNW 7.1 mph /  11.4 km/h 29.0 mph /  46.7 km/h 93 % 0.01 in /  0.25 mm
19:06 22.5 °F /  -5.3 °C 20.8 °F /  -6.2 °C 30.06 in /  1017.8 hPa North 6.0 mph /  9.7 km/h 29.0 mph /  46.7 km/h 93 % 0.01 in /  0.25 mm
19:11 22.6 °F /  -5.2 °C 20.9 °F /  -6.2 °C 30.06 in /  1017.8 hPa NNE 9.0 mph /  14.5 km/h 29.0 mph /  46.7 km/h 93 % 0.01 in /  0.25 mm
19:16 22.6 °F /  -5.2 °C 20.9 °F /  -6.2 °C 30.07 in /  1018.2 hPa NNE 9.7 mph /  15.6 km/h 29.0 mph /  46.7 km/h 93 % 0.01 in /  0.25 mm
19:21 22.5 °F /  -5.3 °C 20.8 °F /  -6.2 °C 30.07 in /  1018.2 hPa NE 7.5 mph /  12.1 km/h 29.0 mph /  46.7 km/h 93 % 0.01 in /  0.25 mm
19:26 22.4 °F /  -5.3 °C 20.7 °F /  -6.3 °C 30.06 in /  1017.8 hPa NNW 10.2 mph /  16.4 km/h 29.0 mph /  46.7 km/h 93 % 0.02 in /  0.51 mm
19:31 22.3 °F /  -5.4 °C 20.6 °F /  -6.3 °C 30.06 in /  1017.8 hPa NNE 9.4 mph /  15.1 km/h 29.0 mph /  46.7 km/h 93 % 0.02 in /  0.51 mm
19:36 22.3 °F /  -5.4 °C 20.6 °F /  -6.3 °C 30.06 in /  1017.8 hPa North 11.4 mph /  18.3 km/h 29.0 mph /  46.7 km/h 93 % 0.01 in /  0.25 mm
19:41 22.3 °F /  -5.4 °C 20.6 °F /  -6.3 °C 30.06 in /  1017.8 hPa North 8.7 mph /  14 km/h 29.0 mph /  46.7 km/h 93 % 0.01 in /  0.25 mm
19:46 22.2 °F /  -5.4 °C 20.5 °F /  -6.4 °C 30.06 in /  1017.8 hPa NNW 7.9 mph /  12.7 km/h 29.0 mph /  46.7 km/h 93 % 0.01 in /  0.25 mm
19:51 22.3 °F /  -5.4 °C 20.6 °F /  -6.3 °C 30.06 in /  1017.8 hPa North 7.4 mph /  11.9 km/h 29.0 mph /  46.7 km/h 93 % 0.01 in /  0.25 mm
19:56 22.2 °F /  -5.4 °C 20.5 °F /  -6.4 °C 30.07 in /  1018.2 hPa NNE 5.8 mph /  9.3 km/h 29.0 mph /  46.7 km/h 93 % 0.01 in /  0.25 mm
20:02 22.2 °F /  -5.4 °C 20.5 °F /  -6.4 °C 30.07 in /  1018.2 hPa NNW 10.2 mph /  16.4 km/h 29.0 mph /  46.7 km/h 93 % 0.01 in /  0.25 mm
20:07 22.2 °F /  -5.4 °C 20.2 °F /  -6.6 °C 30.07 in /  1018.2 hPa NNE 10.9 mph /  17.5 km/h 29.0 mph /  46.7 km/h 92 % 0.01 in /  0.25 mm
20:12 22.2 °F /  -5.4 °C 20.2 °F /  -6.6 °C 30.07 in /  1018.2 hPa NW 8.5 mph /  13.7 km/h 29.0 mph /  46.7 km/h 92 % 0.01 in /  0.25 mm
20:17 22.2 °F /  -5.4 °C 20.2 °F /  -6.6 °C 30.08 in /  1018.5 hPa NNE 11.0 mph /  17.7 km/h 29.0 mph /  46.7 km/h 92 % 0.01 in /  0.25 mm
20:22 22.2 °F /  -5.4 °C 20.2 °F /  -6.6 °C 30.07 in /  1018.2 hPa North 7.8 mph /  12.6 km/h 29.0 mph /  46.7 km/h 92 % 0.01 in /  0.25 mm
20:27 22.2 °F /  -5.4 °C 20.2 °F /  -6.6 °C 30.07 in /  1018.2 hPa North 11.1 mph /  17.9 km/h 29.0 mph /  46.7 km/h 92 % 0.00 in /  0 mm
20:32 22.2 °F /  -5.4 °C 20.2 °F /  -6.6 °C 30.07 in /  1018.2 hPa NNW 7.6 mph /  12.2 km/h 29.0 mph /  46.7 km/h 92 % 0.00 in /  0 mm
20:37 22.2 °F /  -5.4 °C 20.2 °F /  -6.6 °C 30.07 in /  1018.2 hPa NNW 9.1 mph /  14.6 km/h 29.0 mph /  46.7 km/h 92 % 0.00 in /  0 mm
20:42 22.2 °F /  -5.4 °C 20.2 °F /  -6.6 °C 30.07 in /  1018.2 hPa NNE 9.4 mph /  15.1 km/h 29.0 mph /  46.7 km/h 92 % 0.00 in /  0 mm
20:47 22.1 °F /  -5.5 °C 19.9 °F /  -6.7 °C 30.08 in /  1018.5 hPa North 8.8 mph /  14.2 km/h 29.0 mph /  46.7 km/h 91 % 0.00 in /  0 mm
20:52 22.1 °F /  -5.5 °C 19.9 °F /  -6.7 °C 30.07 in /  1018.2 hPa NE 9.1 mph /  14.6 km/h 29.0 mph /  46.7 km/h 91 % 0.00 in /  0 mm
20:57 22.1 °F /  -5.5 °C 19.9 °F /  -6.7 °C 30.07 in /  1018.2 hPa North 8.7 mph /  14 km/h 29.0 mph /  46.7 km/h 91 % 0.00 in /  0 mm
21:02 22.1 °F /  -5.5 °C 19.9 °F /  -6.7 °C 30.07 in /  1018.2 hPa North 10.5 mph /  16.9 km/h 29.0 mph /  46.7 km/h 91 % 0.00 in /  0 mm
21:07 22.1 °F /  -5.5 °C 19.9 °F /  -6.7 °C 30.07 in /  1018.2 hPa NNE 7.9 mph /  12.7 km/h 29.0 mph /  46.7 km/h 91 % 0.00 in /  0 mm
21:12 22.0 °F /  -5.6 °C 19.5 °F /  -6.9 °C 30.08 in /  1018.5 hPa NNW 8.9 mph /  14.3 km/h 29.0 mph /  46.7 km/h 90 % 0.00 in /  0 mm
21:18 22.0 °F /  -5.6 °C 19.5 °F /  -6.9 °C 30.08 in /  1018.5 hPa NNE 5.9 mph /  9.5 km/h 29.0 mph /  46.7 km/h 90 % 0.00 in /  0 mm
21:23 22.0 °F /  -5.6 °C 19.5 °F /  -6.9 °C 30.09 in /  1018.8 hPa North 9.7 mph /  15.6 km/h 29.0 mph /  46.7 km/h 90 % 0.00 in /  0 mm
21:28 22.0 °F /  -5.6 °C 19.5 °F /  -6.9 °C 30.09 in /  1018.8 hPa NE 7.0 mph /  11.3 km/h 29.0 mph /  46.7 km/h 90 % 0.00 in /  0 mm
21:33 22.0 °F /  -5.6 °C 19.3 °F /  -7.1 °C 30.09 in /  1018.8 hPa NNE 9.1 mph /  14.6 km/h 29.0 mph /  46.7 km/h 89 % 0.00 in /  0 mm
21:34 22.0 °F /  -5.6 °C 19.3 °F /  -7.1 °C 30.09 in /  1018.8 hPa NNE 7.5 mph /  12.1 km/h 29.0 mph /  46.7 km/h 89 % 0.00 in /  0 mm
21:39 22.0 °F /  -5.6 °C 19.3 °F /  -7.1 °C 30.09 in /  1018.8 hPa NNW 4.8 mph /  7.7 km/h 29.0 mph /  46.7 km/h 89 % 0.00 in /  0 mm
21:44 22.0 °F /  -5.6 °C 19.3 °F /  -7.1 °C 30.09 in /  1018.8 hPa North 7.2 mph /  11.6 km/h 29.0 mph /  46.7 km/h 89 % 0.00 in /  0 mm
21:49 22.0 °F /  -5.6 °C 19.3 °F /  -7.1 °C 30.09 in /  1018.8 hPa NNW 8.0 mph /  12.9 km/h 29.0 mph /  46.7 km/h 89 % 0.00 in /  0 mm
21:54 22.0 °F /  -5.6 °C 19.3 °F /  -7.1 °C 30.10 in /  1019.2 hPa NNW 7.4 mph /  11.9 km/h 29.0 mph /  46.7 km/h 89 % 0.00 in /  0 mm
21:59 22.0 °F /  -5.6 °C 19.3 °F /  -7.1 °C 30.09 in /  1018.8 hPa North 9.6 mph /  15.4 km/h 29.0 mph /  46.7 km/h 89 % 0.00 in /  0 mm
22:04 21.9 °F /  -5.6 °C 18.9 °F /  -7.3 °C 30.10 in /  1019.2 hPa NNW 4.9 mph /  7.9 km/h 29.0 mph /  46.7 km/h 88 % 0.00 in /  0 mm
22:09 21.9 °F /  -5.6 °C 18.9 °F /  -7.3 °C 30.10 in /  1019.2 hPa North 6.8 mph /  10.9 km/h 29.0 mph /  46.7 km/h 88 % 0.00 in /  0 mm
22:15 21.9 °F /  -5.6 °C 18.9 °F /  -7.3 °C 30.10 in /  1019.2 hPa NW 6.6 mph /  10.6 km/h 29.0 mph /  46.7 km/h 88 % 0.00 in /  0 mm
22:20 21.8 °F /  -5.7 °C 18.8 °F /  -7.3 °C 30.10 in /  1019.2 hPa North 5.0 mph /  8 km/h 29.0 mph /  46.7 km/h 88 % 0.00 in /  0 mm
22:25 21.8 °F /  -5.7 °C 18.8 °F /  -7.3 °C 30.10 in /  1019.2 hPa NNW 7.1 mph /  11.4 km/h 29.0 mph /  46.7 km/h 88 % 0.00 in /  0 mm
22:30 21.8 °F /  -5.7 °C 18.5 °F /  -7.5 °C 30.10 in /  1019.2 hPa NE 7.6 mph /  12.2 km/h 29.0 mph /  46.7 km/h 87 % 0.00 in /  0 mm
22:35 21.7 °F /  -5.7 °C 18.4 °F /  -7.6 °C 30.10 in /  1019.2 hPa NNW 7.0 mph /  11.3 km/h 29.0 mph /  46.7 km/h 87 % 0.00 in /  0 mm
22:40 21.7 °F /  -5.7 °C 18.4 °F /  -7.6 °C 30.11 in /  1019.5 hPa NNE 7.8 mph /  12.6 km/h 29.0 mph /  46.7 km/h 87 % 0.00 in /  0 mm
22:45 21.7 °F /  -5.7 °C 18.4 °F /  -7.6 °C 30.11 in /  1019.5 hPa NNW 6.3 mph /  10.1 km/h 29.0 mph /  46.7 km/h 87 % 0.00 in /  0 mm
22:50 21.6 °F /  -5.8 °C 18.1 °F /  -7.7 °C 30.11 in /  1019.5 hPa NW 3.3 mph /  5.3 km/h 29.0 mph /  46.7 km/h 86 % 0.00 in /  0 mm
22:55 21.6 °F /  -5.8 °C 18.1 °F /  -7.7 °C 30.11 in /  1019.5 hPa NE 8.2 mph /  13.2 km/h 29.0 mph /  46.7 km/h 86 % 0.00 in /  0 mm
23:00 21.5 °F /  -5.8 °C 18.0 °F /  -7.8 °C 30.11 in /  1019.5 hPa North 5.0 mph /  8 km/h 29.0 mph /  46.7 km/h 86 % 0.00 in /  0 mm
23:05 21.5 °F /  -5.8 °C 18.0 °F /  -7.8 °C 30.11 in /  1019.5 hPa NNW 5.3 mph /  8.5 km/h 29.0 mph /  46.7 km/h 86 % 0.00 in /  0 mm
23:10 21.4 °F /  -5.9 °C 17.9 °F /  -7.8 °C 30.11 in /  1019.5 hPa North 5.8 mph /  9.3 km/h 29.0 mph /  46.7 km/h 86 % 0.00 in /  0 mm
23:15 21.3 °F /  -5.9 °C 17.5 °F /  -8.1 °C 30.11 in /  1019.5 hPa North 4.4 mph /  7.1 km/h 29.0 mph /  46.7 km/h 85 % 0.00 in /  0 mm
23:20 21.3 °F /  -5.9 °C 17.5 °F /  -8.1 °C 30.11 in /  1019.5 hPa NNW 4.5 mph /  7.2 km/h 29.0 mph /  46.7 km/h 85 % 0.00 in /  0 mm
23:25 21.4 °F /  -5.9 °C 17.3 °F /  -8.2 °C 30.11 in /  1019.5 hPa NNW 7.3 mph /  11.7 km/h 29.0 mph /  46.7 km/h 84 % 0.00 in /  0 mm
23:30 21.2 °F /  -6 °C 17.7 °F /  -7.9 °C 30.12 in /  1019.9 hPa NNW 5.9 mph /  9.5 km/h 29.0 mph /  46.7 km/h 86 % 0.00 in /  0 mm
23:36 21.2 °F /  -6 °C 16.8 °F /  -8.4 °C 30.11 in /  1019.5 hPa North 8.5 mph /  13.7 km/h 29.0 mph /  46.7 km/h 83 % 0.00 in /  0 mm
23:41 21.2 °F /  -6 °C 17.1 °F /  -8.3 °C 30.11 in /  1019.5 hPa NNW 6.4 mph /  10.3 km/h 29.0 mph /  46.7 km/h 84 % 0.00 in /  0 mm
23:46 21.1 °F /  -6.1 °C 17.0 °F /  -8.3 °C 30.12 in /  1019.9 hPa WNW 5.2 mph /  8.4 km/h 29.0 mph /  46.7 km/h 84 % 0.00 in /  0 mm
23:51 21.1 °F /  -6.1 °C 17.3 °F /  -8.2 °C 30.12 in /  1019.9 hPa NW 4.1 mph /  6.6 km/h 29.0 mph /  46.7 km/h 85 % 0.00 in /  0 mm
23:56 21.1 °F /  -6.1 °C 17.0 °F /  -8.3 °C 30.12 in /  1019.9 hPa North 5.7 mph /  9.2 km/h 29.0 mph /  46.7 km/h 84 % 0.00 in /  0 mm
23:58 21.1 °F /  -6.1 °C 17.0 °F /  -8.3 °C 30.12 in /  1019.9 hPa NNW 5.4 mph /  8.7 km/h 29.0 mph /  46.7 km/h 84 % 0.00 in /  0 mm
Crab Meadow Weather
Compliments of Weather Underground - 3 mb

Script developed by  Jim McMurry - jmcmurry@mwt.net Adapted for the template by  Wim van der Kuil - Leuven-Template.eu

Extremes: A record low of - 128.6 degrees F was recorded at Vostok, Antarctica.